[[{"header":{"parameterUnit":"m.s-1","parameterCategory":1,"la1":30.2991,"la2":30.254,"lo1":-89.0895,"lo2":-89.0444,"dx":0.0017,"dy":0.0017,"nx":28,"ny":28,"refTime":"2022-12-13T15:00:00:Z","depth":0,"parameterNumber":2,"parameterNumberName":"U-component_of_WINDS"},"data":[0,0,0,0,0,0,0,0,0,0,0,0,0,0,0,0,0,0,0,0,0,0,0,0,0,0,0,0,0,0,0,0,0,0,0,0,0,0,0,0,0,0,0,0,0,0,0,0,0,0,0,0,0,0,0,0,0,0,3.5405,3.5406,0,3.5455,3.5456,3.5457,3.5395,3.5393,3.539,3.5388,3.5438,3.5442,3.5445,0,0,0,0,0,0,0,0,0,0,0,0,0,3.5255,3.5258,3.5405,3.5406,3.5406,3.5455,3.5456,3.5457,3.5395,3.5393,3.539,3.5387,3.5437,3.5441,3.5446,0,0,0,0,0,0,0,0,0,0,0,0,0,3.5314,3.5259,3.5405,3.5382,3.538,3.5455,3.5456,3.5457,3.5396,3.5393,3.5389,3.5386,3.5436,3.5441,3.5446,3.5546,0,0,3.5462,3.5464,0,0,0,0,0,0,0,0,3.5311,3.532,3.5384,3.5383,3.5382,3.5415,3.5421,3.5487,3.5397,3.539,3.5388,3.5384,3.5434,3.5439,3.5456,3.5548,3.5551,3.5462,3.5466,3.5468,3.5469,0,0,0,0,0,0,0,3.5307,3.5317,3.5425,3.5385,3.5384,3.5368,3.5373,3.5434,3.543,3.539,3.5386,3.5393,3.5432,3.5451,3.5456,3.5551,3.5462,3.5467,3.547,3.5472,3.573,3.5733,0,0,0,0,0,0,3.5306,3.5314,3.5423,3.5426,3.5337,3.5374,3.5379,3.5408,3.5429,3.5429,3.5396,3.539,3.5444,3.545,3.5458,3.5577,3.5468,3.5473,3.5476,3.5726,3.5731,3.5735,0,0,0,0,0,0,3.5303,3.5316,3.5421,3.5369,3.5381,3.538,3.5413,3.5411,3.5429,3.5433,3.5432,3.5415,3.5441,3.545,3.5525,3.5578,3.5475,3.548,3.5722,3.5727,3.5733,3.5815,0,0,0,0,0,0,3.5299,3.5315,3.5353,3.5371,3.5384,3.5488,3.5416,3.5414,3.5439,3.5431,3.5452,3.5452,3.5439,3.5518,3.553,3.5583,3.5484,3.5717,3.5724,3.5731,3.5808,3.5823,3.5836,0,0,0,0,0,3.5293,3.5374,3.5356,3.5369,3.5432,3.5491,3.5499,3.5483,3.5443,3.5481,3.5484,3.5451,3.557,3.5526,3.5539,3.5594,3.5713,3.5722,3.573,3.5802,3.582,3.5836,0,0,0,0,0,0,3.5362,3.5376,3.5355,3.5444,3.5467,3.5481,3.5528,3.5503,3.5538,3.553,3.5508,3.5513,3.5593,3.5601,3.5551,3.5693,3.5635,3.5647,3.5685,3.5702,3.5716,3.5712,3.5488,0,0,0,0,0,3.5388,3.5435,3.5444,3.5522,3.5534,3.553,3.5555,3.5541,3.5564,3.5573,3.5581,3.5604,3.5646,3.5675,3.5714,3.5809,3.5813,3.5854,3.5868,3.5879,3.5889,3.5941,3.5959,3.5762,3.5762,3.5762,0,0,3.5441,3.5454,3.5485,3.5536,3.5552,3.5601,3.5538,3.5592,3.5629,3.5581,3.5652,3.5659,3.5683,3.5768,3.5806,3.5778,3.5945,3.589,3.5899,3.5903,3.5951,3.597,3.5987,3.5768,3.5767,3.5766,0,0,3.5563,3.5578,3.5644,3.5662,3.5688,3.5684,3.57,3.5718,3.5721,3.5792,3.5758,3.58,3.5874,3.5893,3.5912,3.6043,3.6014,3.6056,3.613,3.618,3.6196,3.6209,3.6256,3.6274,3.6066,3.6067,3.6067,0,3.5626,3.5699,3.5681,3.5739,3.5762,3.5722,3.5789,3.5807,3.5844,3.5861,3.5829,3.5921,3.5934,3.6024,3.6056,3.6073,3.6091,3.6054,3.6195,3.6209,3.6221,3.6266,3.6283,3.6072,3.6071,3.6071,3.607,0,3.5775,3.5826,3.5877,3.5915,3.5944,3.6006,3.5998,3.6029,3.6013,3.6013,3.6087,3.6102,3.6144,3.6164,3.6148,3.6252,3.6233,3.6198,3.614,3.6245,3.6287,3.6304,3.6079,3.6077,3.6076,3.6074,0,0,3.5941,3.5969,3.5988,3.6005,3.6031,3.607,3.6131,3.6172,3.62,3.6227,3.6277,3.6341,3.631,3.6332,3.6318,3.6362,3.6466,3.6322,3.6322,3.6348,3.6581,3.6607,3.6627,3.6447,3.645,3.6453,3.6579,0,3.6063,3.6168,3.6155,3.6256,3.6303,3.6266,3.6319,3.6341,3.6343,3.6383,3.6385,3.6431,3.6385,3.6399,3.6441,3.6444,3.6512,3.6435,3.6493,3.6495,3.6488,3.6649,3.6676,3.6795,3.6595,3.6598,3.66,0,3.622,3.6254,3.636,3.6379,3.6399,3.6446,3.6484,3.6523,3.6547,3.6546,3.6571,3.655,3.661,3.6551,3.6635,3.6583,3.6606,3.6611,3.6615,3.662,3.6554,3.6658,3.6832,3.685,3.6625,3.6623,3.6621,0,3.6331,3.6403,3.6476,3.6492,3.6516,3.6551,3.6562,3.6583,3.6609,3.6642,3.6659,3.6698,3.672,3.6751,3.6741,3.6699,3.6827,3.6767,3.6827,3.6828,3.6855,3.6854,3.7036,3.6871,3.687,3.687,3.687,0,3.6469,3.6536,3.6526,3.6571,3.6644,3.6629,3.6701,3.6708,3.6727,3.6773,3.6743,3.6786,3.6771,3.6813,3.6806,3.6876,3.6886,3.6886,3.6883,3.6889,3.6889,3.6904,3.6895,3.6875,3.6874,3.6873,3.6872,0,3.6605,3.6602,3.6679,3.6696,3.6702,3.6755,3.677,3.6812,3.6812,3.687,3.6883,3.6883,3.6931,3.6925,3.6978,3.6973,3.7061,3.7048,3.7053,3.705,3.7111,3.7106,3.731,3.7336,3.7153,3.7155,3.7156,0,3.6694,3.6744,3.6767,3.6796,3.6811,3.6857,3.6884,3.6871,3.69,3.6932,3.697,3.7016,3.7052,3.7131,3.7136,3.7177,3.7165,3.7233,3.7171,3.7175,3.7166,3.7163,3.7168,3.7246,3.7248,3.7249,3.7251,0,3.6852,3.6848,3.6888,3.6928,3.6962,3.6993,3.702,3.7046,3.7035,3.7069,3.7119,3.7147,3.7203,3.7249,3.7287,3.7299,3.7274,3.7271,3.7287,3.7293,3.7294,3.7294,3.7087,3.7266,3.7264,3.7263,3.7262,3.7262,3.6967,3.701,3.7033,3.708,3.7099,3.7126,3.7167,3.7173,3.7214,3.7259,3.7248,3.7304,3.7327,3.7377,3.7393,3.7437,3.7411,3.7435,3.7441,3.7447,3.7454,3.7287,3.7444,3.7443,3.7443,3.7443,3.7442,0,3.7123,3.7136,3.7179,3.722,3.7256,3.723,3.726,3.7292,3.7342,3.7366,3.7402,3.746,3.7505,3.7513,3.7556,3.7589,3.7579,3.7601,3.7598,3.7601,3.7474,3.7456,3.7609,3.7609,3.7609,3.7609,3.7609,3.7609,3.7209,3.7281,3.728,3.7361,3.7374,3.743,3.7449,3.7474,3.7493,3.7559,3.7596,3.7602,3.762,3.7664,3.7704,3.7705,3.7722,3.7749,3.7746,3.7627,3.761,3.7594,3.7577,3.7753,3.7753,3.7869,3.787,3.7871]},{"header":{"parameterUnit":"m.s-1","parameterCategory":1,"la1":30.2991,"la2":30.254,"lo1":-89.0895,"lo2":-89.0444,"dx":0.0017,"dy":0.0017,"nx":28,"ny":28,"refTime":"2022-12-13T15:00:00:Z","depth":0,"parameterNumber":3,"parameterNumberName":"V-component_of_WINDS"},"data":[0,0,0,0,0,0,0,0,0,0,0,0,0,0,0,0,0,0,0,0,0,0,0,0,0,0,0,0,0,0,0,0,0,0,0,0,0,0,0,0,0,0,0,0,0,0,0,0,0,0,0,0,0,0,0,0,0,0,-4.3374,-4.3375,0,-4.353,-4.3531,-4.3533,-4.352,-4.3518,-4.3516,-4.3513,-4.3674,-4.3681,-4.3687,0,0,0,0,0,0,0,0,0,0,0,0,0,-4.3068,-4.3073,-4.3374,-4.3376,-4.3378,-4.3529,-4.3532,-4.3534,-4.3521,-4.3518,-4.3515,-4.3512,-4.3672,-4.368,-4.3688,0,0,0,0,0,0,0,0,0,0,0,0,0,-4.321,-4.3075,-4.3373,-4.3389,-4.3392,-4.3529,-4.3532,-4.3534,-4.3521,-4.3518,-4.3514,-4.3511,-4.367,-4.3679,-4.3689,-4.382,0,0,-4.3719,-4.3723,0,0,0,0,0,0,0,0,-4.3202,-4.3221,-4.3385,-4.3388,-4.3392,-4.3502,-4.3483,-4.363,-4.3522,-4.3472,-4.3513,-4.3509,-4.362,-4.3634,-4.3671,-4.3827,-4.3834,-4.3719,-4.3725,-4.3729,-4.3732,0,0,0,0,0,0,0,-4.3192,-4.3214,-4.3435,-4.3387,-4.3392,-4.339,-4.3406,-4.3511,-4.3564,-4.3476,-4.3476,-4.3494,-4.3621,-4.3661,-4.3674,-4.3837,-4.3719,-4.3728,-4.3734,-4.3738,-4.4112,-4.4116,0,0,0,0,0,0,-4.3178,-4.3206,-4.343,-4.344,-4.3286,-4.3398,-4.3416,-4.347,-4.3563,-4.3574,-4.3497,-4.3493,-4.3646,-4.3663,-4.368,-4.3841,-4.3729,-4.3739,-4.3744,-4.4108,-4.4113,-4.4117,0,0,0,0,0,0,-4.3171,-4.3198,-4.3424,-4.3323,-4.3352,-4.3407,-4.3468,-4.3475,-4.3515,-4.3579,-4.3588,-4.3528,-4.3644,-4.3666,-4.3786,-4.3846,-4.3743,-4.3752,-4.4103,-4.4109,-4.4115,-4.4164,0,0,0,0,0,0,-4.3163,-4.3196,-4.3245,-4.3324,-4.3357,-4.3527,-4.3472,-4.3481,-4.3532,-4.3528,-4.361,-4.3621,-4.3643,-4.3771,-4.3795,-4.3858,-4.3759,-4.4098,-4.4106,-4.4113,-4.4157,-4.4171,-4.4182,0,0,0,0,0,-4.3152,-4.3253,-4.3248,-4.3275,-4.342,-4.353,-4.3549,-4.3572,-4.3537,-4.3588,-4.3629,-4.3618,-4.3836,-4.3784,-4.3811,-4.3877,-4.4094,-4.4103,-4.4112,-4.4151,-4.4168,-4.4182,0,0,0,0,0,0,-4.318,-4.3263,-4.3259,-4.3388,-4.3452,-4.3528,-4.3592,-4.3589,-4.3665,-4.3658,-4.3684,-4.3703,-4.3824,-4.3862,-4.3803,-4.401,-4.396,-4.3975,-4.3981,-4.3997,-4.401,-4.3998,-4.3767,0,0,0,0,0,-4.3201,-4.3282,-4.3351,-4.3459,-4.3491,-4.3536,-4.3585,-4.3598,-4.3665,-4.3692,-4.3742,-4.3809,-4.3892,-4.3947,-4.4027,-4.4162,-4.4181,-4.4222,-4.4234,-4.4245,-4.4258,-4.4334,-4.4354,-4.4147,-4.4147,-4.4147,0,0,-4.3245,-4.3301,-4.3351,-4.3466,-4.3517,-4.3602,-4.3559,-4.365,-4.3714,-4.3706,-4.3822,-4.3862,-4.3938,-4.4066,-4.4125,-4.4102,-4.4319,-4.4256,-4.4264,-4.4272,-4.4346,-4.4365,-4.4382,-4.4153,-4.4152,-4.4151,0,0,-4.337,-4.342,-4.3516,-4.3568,-4.3646,-4.3676,-4.3699,-4.3776,-4.3801,-4.3918,-4.3915,-4.3992,-4.4134,-4.4189,-4.4236,-4.4384,-4.4378,-4.441,-4.4477,-4.4551,-4.4567,-4.4582,-4.4636,-4.4655,-4.4422,-4.4422,-4.4422,0,-4.3416,-4.3543,-4.3566,-4.3658,-4.371,-4.3707,-4.3805,-4.3855,-4.3955,-4.3991,-4.3964,-4.4145,-4.4196,-4.4338,-4.4374,-4.4412,-4.444,-4.44,-4.4563,-4.4578,-4.4592,-4.4644,-4.4664,-4.4426,-4.4425,-4.4425,-4.4425,0,-4.3596,-4.3685,-4.3753,-4.385,-4.3909,-4.4004,-4.4042,-4.41,-4.4108,-4.4141,-4.4261,-4.4322,-4.4416,-4.4451,-4.4459,-4.4595,-4.4579,-4.4557,-4.4507,-4.4615,-4.4664,-4.4684,-4.4431,-4.443,-4.4428,-4.4428,0,0,-4.3742,-4.3852,-4.3876,-4.3921,-4.4008,-4.4077,-4.4173,-4.4264,-4.4314,-4.4384,-4.4465,-4.4588,-4.4569,-4.4622,-4.4637,-4.4702,-4.4818,-4.4673,-4.4675,-4.4699,-4.4973,-4.499,-4.5012,-4.4814,-4.4818,-4.4821,-4.4967,0,-4.3876,-4.4045,-4.4069,-4.4219,-4.4302,-4.4301,-4.4385,-4.4448,-4.4482,-4.4558,-4.4596,-4.4682,-4.465,-4.4682,-4.4747,-4.479,-4.4873,-4.4779,-4.4892,-4.4895,-4.4873,-4.5038,-4.5055,-4.519,-4.4987,-4.499,-4.4992,0,-4.4055,-4.413,-4.4288,-4.4365,-4.4401,-4.4475,-4.4562,-4.4635,-4.4707,-4.4727,-4.4788,-4.4795,-4.4896,-4.4842,-4.4983,-4.4918,-4.4966,-4.4994,-4.5,-4.5012,-4.4951,-4.5055,-4.5234,-4.5255,-4.5023,-4.502,-4.5018,0,-4.4147,-4.4288,-4.4401,-4.4439,-4.4531,-4.4584,-4.4625,-4.4694,-4.4748,-4.4824,-4.486,-4.4947,-4.4995,-4.5063,-4.5095,-4.5053,-4.5234,-4.5182,-4.5255,-4.5255,-4.5294,-4.5291,-4.5484,-4.5323,-4.5323,-4.5322,-4.5322,0,-4.4295,-4.4392,-4.4444,-4.4513,-4.4622,-4.465,-4.4758,-4.4797,-4.4859,-4.4937,-4.4942,-4.5016,-4.5053,-4.5133,-4.5158,-4.5272,-4.5293,-4.5314,-4.5319,-4.5314,-4.5311,-4.5346,-4.5337,-4.5328,-4.5326,-4.5325,-4.5324,0,-4.4416,-4.4455,-4.4578,-4.4656,-4.4678,-4.4755,-4.4822,-4.4891,-4.4924,-4.5024,-4.5049,-4.5103,-4.5197,-4.5236,-4.5351,-4.5368,-4.55,-4.5497,-4.5475,-4.5477,-4.5548,-4.5542,-4.577,-4.5803,-4.5619,-4.5621,-4.5623,0,-4.4508,-4.4583,-4.4669,-4.4722,-4.4765,-4.4849,-4.4905,-4.4936,-4.4993,-4.5083,-4.5141,-4.5235,-4.5312,-4.5464,-4.5514,-4.5603,-4.5604,-4.5678,-4.5617,-4.561,-4.5607,-4.5602,-4.5611,-4.5689,-4.5691,-4.5693,-4.5694,0,-4.4669,-4.4684,-4.4763,-4.4851,-4.4917,-4.4987,-4.5055,-4.5098,-4.514,-4.5205,-4.5301,-4.5361,-4.548,-4.5574,-4.5667,-4.571,-4.5711,-4.5713,-4.5735,-4.573,-4.5714,-4.5725,-4.5507,-4.5707,-4.5706,-4.5705,-4.5704,-4.5704,-4.4779,-4.4846,-4.4918,-4.5006,-4.5061,-4.5125,-4.5194,-4.5237,-4.5318,-4.5417,-4.543,-4.5534,-4.5607,-4.5731,-4.5779,-4.5862,-4.5843,-4.5874,-4.5882,-4.5889,-4.5895,-4.5701,-4.5878,-4.5878,-4.5878,-4.5877,-4.5877,0,-4.4941,-4.4987,-4.5068,-4.5164,-4.5234,-4.5227,-4.5303,-4.5363,-4.5454,-4.5522,-4.5598,-4.571,-4.5802,-4.586,-4.5953,-4.6009,-4.6011,-4.6032,-4.6029,-4.604,-4.5906,-4.5878,-4.6029,-4.6029,-4.6029,-4.6029,-4.6029,-4.6029,-4.5033,-4.5146,-4.5171,-4.5312,-4.5358,-4.546,-4.5504,-4.5564,-4.5618,-4.5743,-4.582,-4.5857,-4.5921,-4.602,-4.6105,-4.6119,-4.6154,-4.6177,-4.6191,-4.6065,-4.6049,-4.6034,-4.6008,-4.6184,-4.6184,-4.6318,-4.6319,-4.632]}]]